Boa Vista Airport, Brazil

5:40 AM -04 on July 25, 2017 (GMT -0400)
Boa Vista International

Weather History for SBBV - March, 2014

Change the Weather History Date:

Saturday, March 29, 2014

  Actual Average Record
Temperature  
Mean Temperature 86 °F -  
Max Temperature 95 °F 89 °F 100 °F (1998)
Min Temperature 77 °F 74 °F 73 °F (2004)
Cooling Degree Days 21    
Growing Degree Days 36 (Base 50)    
Moisture  
Dew Point 63 °F    
Average Humidity 46    
Maximum Humidity 69    
Minimum Humidity 22    
Precipitation  
Precipitation 0.00 in - - ()
Sea Level Pressure  
Sea Level Pressure 29.84 in    
Wind  
Wind Speed 10 mph ()    
Max Wind Speed 17 mph    
Max Gust Speed -    
Visibility 8.3 miles    
Events      
Averages and records for this station are not official NWS values.
T = Trace of Precipitation, MM = Missing Value Source: Averaged Metar Reports

Daily Weather History Graph

Daily Weather History Graph

Search for Another Location

Airport or City:

Trip Planner

Search our weather history database for the weather conditions in past years. The results will help you decide how hot, cold, wet, or windy it might be!

Date:

Astronomy

Mar. 29, 2014 Rise Set
Actual Time 6:03 AM -04 6:11 PM -04
Civil Twilight 5:42 AM -04 6:32 PM -04
Nautical Twilight 5:18 AM -04 6:56 PM -04
Astronomical Twilight 4:54 AM -04 7:20 PM -04
Moon 4:54 AM -04 (3/29) 5:19 PM -04 (3/29)
Length of Visible Light 12h 49m
Length of Day
12h 07m
Waning Crescent, 2% of the Moon is Illuminated
Mar 29
Waning Crescent
Mar 30
New
Apr 7
First Quarter
Apr 15
Full
Apr 22
Last Quarter

Hourly Weather History & Observations

Time (-04) Temp. Heat Index Dew Point Humidity Pressure Visibility Wind Dir Wind Speed Gust Speed Precip Events Conditions
12:00 AM 80.6 °F 82.3 °F 64.4 °F 58% 29.86 in - East 6.9 mph - N/A   Clear
1:00 AM 80.6 °F 82.3 °F 64.4 °F 58% 29.86 in - East 6.9 mph - N/A   Clear
2:00 AM 80 °F - 63 °F 46% 29.83 in 12 mi East 10.4 mph - -  
2:00 AM 80.6 °F 81.8 °F 62.6 °F 54% 29.83 in - East 10.4 mph - N/A   Clear
3:00 AM 78.8 °F - 64.4 °F 61% 29.83 in - East 5.8 mph - N/A   Clear
4:00 AM 78.8 °F - 66.2 °F 65% 29.83 in - East 8.1 mph - N/A   Clear
5:00 AM 77.0 °F - 66.2 °F 69% 29.86 in - ENE 9.2 mph - N/A   Clear
6:00 AM 77.0 °F - 64.4 °F 65% 29.86 in - ENE 15.0 mph - N/A   Clear
7:00 AM 77.0 °F - 64.4 °F 65% 29.89 in - ENE 13.8 mph - N/A   Clear
8:00 AM 81 °F - 65 °F 49% 29.92 in 12 mi ENE 15.0 mph - -   Clear
8:00 AM 80.6 °F 82.3 °F 64.4 °F 58% 29.92 in - ENE 15.0 mph - N/A   Clear
9:00 AM 84.2 °F 85.0 °F 62.6 °F 48% 29.95 in - ENE 17.3 mph - N/A   Clear
10:00 AM 86.0 °F 86.6 °F 62.6 °F 45% 29.95 in - ENE 17.3 mph - N/A   Clear
11:00 AM 89.6 °F 89.5 °F 60.8 °F 38% 29.92 in - ENE 16.1 mph - N/A   Clear
12:00 PM 91.4 °F 91.4 °F 60.8 °F 36% 29.89 in 6.2 mi ENE 15.0 mph - N/A   Partly Cloudy
1:00 PM 93.2 °F 92.6 °F 59.0 °F 32% 29.86 in 6.2 mi NE 11.5 mph - N/A   Partly Cloudy
2:00 PM 94 °F - 59 °F 22% 29.81 in 12 mi NNE 13.8 mph - -   Scattered Clouds
2:00 PM 93.2 °F 92.6 °F 59.0 °F 32% 29.80 in 6.2 mi NNE 13.8 mph - N/A   Partly Cloudy
3:00 PM 93.2 °F 92.6 °F 59.0 °F 32% 29.77 in 6.2 mi East 12.7 mph - N/A   Partly Cloudy
4:00 PM 95.0 °F 94.4 °F 59.0 °F 30% 29.77 in 6.2 mi NNE 11.5 mph - N/A   Partly Cloudy
5:00 PM 95.0 °F 94.4 °F 59.0 °F 30% 29.74 in 6.2 mi NNE 4.6 mph - N/A   Partly Cloudy
6:00 PM 93.2 °F 92.6 °F 59.0 °F 32% 29.77 in 6.2 mi NE 8.1 mph - N/A   Partly Cloudy
7:00 PM 89.6 °F 90.1 °F 62.6 °F 40% 29.77 in - NE 8.1 mph - N/A   Clear
8:00 PM 87 °F - 64 °F 36% 29.79 in 12 mi NE 8.1 mph - -   Clear
8:00 PM 87.8 °F 89.4 °F 64.4 °F 46% 29.80 in - NE 8.1 mph - N/A   Clear
9:00 PM 86.0 °F 87.3 °F 64.4 °F 48% 29.80 in - East 13.8 mph - N/A   Clear
10:00 PM 86.0 °F 88.2 °F 66.2 °F 51% 29.83 in - East 11.5 mph - N/A   Clear
11:00 PM 84.2 °F 86.6 °F 66.2 °F 55% 29.83 in - ENE 11.5 mph - N/A   Clear